Tracking 19574 objects as of 16-Feb-2019
HD Live streaming from Space Station
objects crossing your sky now

COSMOS 830

Track COSMOS 830 now!
10-day predictions
COSMOS 830 is classified as:


NORAD ID: 8894
Int'l Code: 1976-054F
Perigee: 1,475.0 km
Apogee: 1,500.0 km
Inclination: 74.0 °
Period: 115.5 minutes
Semi major axis: 7858 km
RCS: 0.7027 m2 (medium)
Launch date: June 15, 1976
Source: Commonwealth of Independent States (former USSR) (CIS)
Launch site: PLESETSK MISSILE AND SPACE COMPLEX (PKMTR)
aabbcc
Your satellite tracking list
Your tracking list is empty




NASA's NSSDC Master Catalog

Two Line Element Set (TLE):
1  8894U 76054F   19046.54733144 -.00000001 +00000-0 +99988-4 0  9991
2  8894 074.0010 034.9239 0015892 347.3822 147.5743 12.46218422941161
Source of the keplerian elements: AFSPC